Tracking 19562 objects as of 25-Mar-2019
HD Live streaming from Space Station
objects crossing your sky now

FENGYUN 1C DEB

Track FENGYUN 1C DEB now!
10-day predictions


NORAD ID: 31751
Int'l Code: 1999-025CFA
Perigee: 724.5 km
Apogee: 815.4 km
Inclination: 98.9 °
Period: 100.1 minutes
Semi major axis: 7140 km
RCS: 0.0135 m2 (small)
Launch date: May 10, 1999
Source: People's Republic of China (PRC)
Launch site: Taiyaun Space Center, China (TSC)

Note: This is SATELLITE DEBRIS
aabbcc
Your satellite tracking list
Your tracking list is empty




NASA's NSSDC Master Catalog

Two Line Element Set (TLE):
1 31751U 99025CFA 19058.11543749  .00001684  00000-0  55133-3 0  9998
2 31751  98.8623 166.0497 0063623 239.1147 120.3773 14.38697919614400
Source of the keplerian elements: AFSPC